Waarnemingen

Advertentie
Mijn weer
Camborne, Groot Brittannië (3808): temperatuur & dauwpunt: 12.12.2017 14:00:00 - 18.12.2017 14:00:00 (GMT)Camborne, Groot Brittannië (3808): temperatuur -20cm & temperatuur -100cm: 12.12.2017 14:00:00 - 18.12.2017 14:00:00 (GMT)Camborne, Groot Brittannië (3808): windsnelheid & windstoten: 12.12.2017 14:00:00 - 18.12.2017 14:00:00 (GMT)Camborne, Groot Brittannië (3808): windrichting: 12.12.2017 14:00:00 - 18.12.2017 14:00:00 (GMT)Camborne, Groot Brittannië (3808): luchtdruk: 12.12.2017 14:00:00 - 18.12.2017 14:00:00 (GMT)Camborne, Groot Brittannië (3808): zicht: 12.12.2017 14:00:00 - 18.12.2017 14:00:00 (GMT)Camborne, Groot Brittannië (3808): Zonneschijnduur: 12.12.2017 14:00:00 - 18.12.2017 14:00:00 (GMT)Camborne, Groot Brittannië (3808): neerslag: 12.12.2017 14:00:00 - 18.12.2017 14:00:00 (GMT)
Datum & Tijd tt [°C] td [°C] tt -20cm [°C] tt -100cm [°C] ff [km/u] ff [kn] fx [km/u] fx [kn] dd ppp [hPa] vv [km] sd [min] rr [mm]
18.12.2017 14:00:00 10,1 5,3 - - 11 6 - - ZO 1031,3 22 60 0,0
18.12.2017 13:00:00 9,9 4,7 - - 11 6 - - OZO 1031,1 25 60 0,0
18.12.2017 12:00:00 10,2 4,5 - - 9 5 - - OZO 1031,2 24 60 0,0
18.12.2017 11:00:00 8,7 6,4 - - 9 5 - - O 1031,1 17 60 0,0
18.12.2017 10:00:00 7,4 6,8 - - 4 2 - - ONO 1030,4 12 60 0,0
18.12.2017 09:00:00 6,4 5,8 8,7 9,4 9 5 - - O 1029,8 12 0 0,0
18.12.2017 08:00:00 7,0 6,6 - - 9 5 - - ONO 1028,9 8 0 0,0
18.12.2017 07:00:00 8,0 6,9 - - 13 7 - - NNO 1028,3 12 0 0,0
18.12.2017 06:00:00 8,3 7,6 - - 11 6 - - NNO 1027,3 10 0 0,0
18.12.2017 05:00:00 9,4 8,7 - - 16 9 - - N 1026,7 10 0 0,0
18.12.2017 04:00:00 10,2 10,1 - - 18 10 - - NNW 1026,3 4,0 0 0,0
18.12.2017 03:00:00 10,2 10,2 - - 16 9 - - NNW 1026,2 6 0 0,0
18.12.2017 02:00:00 10,2 10,2 - - 16 9 - - NNW 1025,7 4,0 0 0,0
18.12.2017 01:00:00 10,4 10,4 - - 15 8 - - NW 1025,6 0,4 0 0,0
18.12.2017 00:00:00 10,4 10,4 - - 11 6 - - NW 1025,4 0,3 - 0,2
17.12.2017 23:00:00 10,5 10,5 - - 15 8 - - W 1025,1 0,3 0 0,0
17.12.2017 22:00:00 10,7 10,7 - - 16 9 - - WNW 1025,2 0,2 0 0,0
17.12.2017 21:00:00 10,8 10,7 - - 18 10 - - WZW 1024,5 2,5 0 0,0
17.12.2017 20:00:00 10,8 10,7 - - 22 12 - - W 1024,9 3,0 0 0,2
17.12.2017 19:00:00 10,7 10,5 - - 18 10 - - W 1024,7 1,8 0 0,0
17.12.2017 18:00:00 10,4 10,2 - - 21 11 - - WZW 1023,6 3,0 0 0,0
17.12.2017 17:00:00 10,2 10,0 - - 24 13 - - ZW 1023,4 2,0 0 0,0
17.12.2017 16:00:00 10,0 9,6 - - 21 11 - - ZW 1023,9 4,5 0 0,0
17.12.2017 15:00:00 9,8 9,3 - - 21 11 - - ZW 1024,2 4,0 0 0,2
17.12.2017 14:00:00 9,7 9,2 - - 22 12 - - ZW 1024,8 3,0 0 0,2
17.12.2017 13:00:00 10,3 8,6 - - 24 13 - - WZW 1025,6 10 0 0,0
17.12.2017 12:00:00 10,3 8,1 - - 21 11 - - WZW 1026,1 20 0 0,0
17.12.2017 11:00:00 10,1 8,1 - - 21 11 - - WZW 1026,1 22 0 0,0
17.12.2017 10:00:00 9,4 7,4 - - 18 10 - - ZW 1025,1 22 0 0,0
17.12.2017 09:00:00 8,6 7,2 8,2 9,4 15 8 - - ZW 1025,7 20 0 0,0
17.12.2017 08:00:00 8,0 6,8 - - 15 8 - - ZZW 1026,0 25 0 0,0
17.12.2017 07:00:00 7,9 6,5 - - 9 5 - - ZW 1026,1 21 0 0,0
17.12.2017 06:00:00 8,7 6,7 - - 13 7 - - W 1026,2 22 0 0,0
17.12.2017 05:00:00 8,3 6,6 - - 9 5 - - WZW 1026,5 20 0 0,0
17.12.2017 04:00:00 8,8 6,4 - - 13 7 - - W 1026,4 20 0 0,0
17.12.2017 03:00:00 8,7 6,4 - - 13 7 - - WNW 1026,5 18 0 0,0
17.12.2017 02:00:00 9,1 6,7 - - 18 10 - - WNW 1026,6 16 0 0,0
17.12.2017 01:00:00 8,6 7,6 - - 11 6 - - NW 1026,4 15 0 0,0
17.12.2017 00:00:00 8,2 7,0 - - 21 11 - - NW 1026,5 12 - 0,2
16.12.2017 23:00:00 8,4 7,0 - - 15 8 - - NNW 1026,3 13 0 0,2
16.12.2017 22:00:00 8,3 6,6 - - 18 10 - - NW 1026,1 20 0 0,0
16.12.2017 21:00:00 8,6 6,2 - - 21 11 - - WNW 1025,8 22 0 0,0
16.12.2017 20:00:00 8,7 6,2 - - 22 12 - - NW 1025,8 20 0 0,0
16.12.2017 19:00:00 8,1 6,2 - - 21 11 - - NW 1025,5 20 0 0,6
16.12.2017 18:00:00 7,8 6,3 - - 26 14 46 25 NW 1025,3 12 0 1,0
16.12.2017 17:00:00 9,0 5,3 - - 26 14 - - WNW 1024,5 25 0 0,0
16.12.2017 16:00:00 8,6 4,6 - - 24 13 - - WNW 1024,1 25 0 0,0
16.12.2017 15:00:00 8,2 4,2 - - 21 11 - - WNW 1024,1 25 0 0,0
16.12.2017 14:00:00 8,1 2,5 - - 18 10 - - WNW 1023,8 30 18 0,0
16.12.2017 13:00:00 7,9 2,6 - - 18 10 - - WNW 1024,2 40 0 0,0
16.12.2017 12:00:00 7,7 2,6 - - 16 9 - - NW 1024,3 40 42 0,0
16.12.2017 11:00:00 7,9 1,9 - - 16 9 - - NNW 1024,0 40 54 0,0
16.12.2017 10:00:00 7,2 1,5 - - 15 8 - - NNW 1023,6 40 60 0,0
16.12.2017 09:00:00 6,7 1,1 8,2 9,5 18 10 - - N 1023,0 40 6 0,0
16.12.2017 08:00:00 6,7 1,4 - - 18 10 - - N 1022,1 30 0 0,0
16.12.2017 07:00:00 6,4 1,3 - - 21 11 - - N 1021,3 14 0 0,0
16.12.2017 06:00:00 5,1 2,6 - - 22 12 50 27 N 1020,7 12 0 0,2
16.12.2017 05:00:00 6,9 0,6 - - 24 13 - - N 1019,9 20 0 0,0
16.12.2017 04:00:00 7,0 1,6 - - 22 12 - - N 1019,3 22 0 0,0
16.12.2017 03:00:00 6,7 1,1 - - 21 11 - - N 1018,9 20 0 0,0
16.12.2017 02:00:00 7,1 2,1 - - 22 12 - - N 1018,2 20 0 0,0
16.12.2017 01:00:00 6,9 2,4 - - 22 12 - - N 1017,7 20 0 0,0
16.12.2017 00:00:00 7,1 2,4 - - 24 13 - - N 1017,2 18 - 0,0
15.12.2017 23:00:00 7,0 2,9 - - 22 12 - - N 1016,5 16 0 0,0
15.12.2017 22:00:00 5,6 3,4 - - 24 13 46 25 NNO 1016,0 16 0 0,2
15.12.2017 21:00:00 5,7 3,1 - - 26 14 46 25 N 1015,1 15 0 0,6
15.12.2017 20:00:00 6,9 4,2 - - 29 16 50 27 NNO 1014,3 15 0 1,4
15.12.2017 19:00:00 7,9 3,9 - - 28 15 46 25 N 1013,0 12 0 0,0
15.12.2017 18:00:00 8,1 3,8 - - 31 17 48 26 N 1012,0 15 0 0,0
15.12.2017 17:00:00 7,8 4,7 - - 28 15 54 29 N 1011,0 15 0 0,6
15.12.2017 16:00:00 7,4 5,0 - - 34 18 52 28 NNO 1009,9 15 0 1,8
15.12.2017 15:00:00 6,8 5,6 - - 35 19 59 32 N 1008,7 5 0 0,6
15.12.2017 14:00:00 8,4 4,4 - - 34 18 61 33 N 1007,8 15 0 0,0
15.12.2017 13:00:00 8,4 4,8 - - 37 20 57 31 NNW 1006,9 15 24 0,0
15.12.2017 12:00:00 7,2 4,3 - - 35 19 55 30 NNW 1006,6 10 30 0,0
15.12.2017 11:00:00 6,8 3,7 - - 37 20 67 36 NNW 1006,2 20 36 0,0
15.12.2017 10:00:00 8,2 2,6 - - 29 16 57 31 NNW 1005,1 25 6 0,0
15.12.2017 09:00:00 8,0 3,3 8,2 9,7 34 18 59 32 N 1003,8 15 0 0,0
15.12.2017 08:00:00 7,9 3,4 - - 34 18 61 33 NNW 1002,4 15 0 0,0
15.12.2017 07:00:00 8,1 3,0 - - 41 22 70 38 NNW 1001,1 15 0 0,2
15.12.2017 06:00:00 8,2 4,0 - - 46 25 68 37 NNW 1000,1 12 0 0,0
15.12.2017 05:00:00 8,3 3,9 - - 39 21 61 33 NNW 999,8 12 0 0,0
15.12.2017 04:00:00 8,4 4,3 - - 34 18 50 27 NNW 999,1 19 0 0,0
15.12.2017 03:00:00 8,3 4,4 - - 31 17 52 28 NW 998,7 15 0 0,0
15.12.2017 02:00:00 7,9 3,9 - - 29 16 57 31 WNW 998,0 12 0 0,2
15.12.2017 01:00:00 7,5 3,8 - - 31 17 52 28 NW 998,1 12 0 0,4
15.12.2017 00:00:00 8,1 2,7 - - 31 17 54 29 WNW 998,0 10 - 0,0
14.12.2017 23:00:00 8,0 3,0 - - 37 20 55 30 WNW 997,4 8 0 0,0
14.12.2017 22:00:00 7,9 2,5 - - 35 19 59 32 NW 997,1 15 0 0,0
14.12.2017 21:00:00 8,2 1,4 - - 42 23 70 38 NW 996,2 15 0 0,0
14.12.2017 20:00:00 8,2 2,3 - - 41 22 70 38 NW 995,4 15 0 0,0
14.12.2017 19:00:00 8,1 3,0 - - 48 26 74 40 NW 994,5 12 0 0,0
14.12.2017 18:00:00 7,3 4,0 - - 48 26 81 44 NW 992,7 12 0 1,4
14.12.2017 17:00:00 6,0 4,1 - - 41 22 76 41 WNW 992,4 8 0 0,8
14.12.2017 16:00:00 7,6 3,5 - - 39 21 63 34 W 993,0 16 6 0,0
14.12.2017 15:00:00 6,4 2,5 - - 29 16 72 39 W 993,6 18 12 0,8
14.12.2017 14:00:00 6,9 1,7 - - 35 19 59 32 WNW 994,3 22 18 0,2
14.12.2017 13:00:00 4,0 1,3 - - 42 23 68 37 WNW 995,3 8 18 0,6
14.12.2017 12:00:00 6,9 1,3 - - 37 20 61 33 W 995,8 20 0 0,0
14.12.2017 11:00:00 6,0 2,1 - - 31 17 61 33 W 997,1 20 0 0,2
14.12.2017 10:00:00 5,9 3,5 - - 21 11 - - W 997,6 18 0 0,0
14.12.2017 09:00:00 3,4 2,3 8,7 9,7 39 21 72 39 NW 998,6 12 0 1,0
14.12.2017 08:00:00 5,6 3,4 - - 31 17 61 33 W 998,5 16 0 0,2
14.12.2017 07:00:00 7,1 1,3 - - 41 22 61 33 W 998,8 15 0 0,0
14.12.2017 06:00:00 7,0 1,1 - - 37 20 63 34 W 999,5 10 0 0,2
14.12.2017 05:00:00 7,5 1,0 - - 39 21 65 35 WNW 999,8 10 0 0,0
14.12.2017 04:00:00 6,0 2,0 - - 42 23 83 45 WNW 1000,5 18 0 0,2
14.12.2017 03:00:00 5,0 2,1 - - 37 20 80 43 W 1001,3 10 0 0,4
14.12.2017 02:00:00 6,2 2,8 - - 29 16 61 33 W 1001,5 12 0 0,2
14.12.2017 01:00:00 5,7 1,8 - - 31 17 83 45 WNW 1002,2 12 0 0,0
14.12.2017 00:00:00 7,2 0,8 - - 35 19 63 34 W 1001,9 15 - 0,0
13.12.2017 23:00:00 7,5 -0,6 - - 39 21 63 34 WNW 1001,8 12 0 0,0
13.12.2017 22:00:00 7,4 -1,8 - - 37 20 67 36 WNW 1001,4 12 0 0,2
13.12.2017 21:00:00 7,1 -0,6 - - 44 24 74 40 WNW 1000,6 15 0 0,0
13.12.2017 20:00:00 7,3 -1,3 - - 44 24 80 43 WNW 999,4 20 0 0,0
13.12.2017 19:00:00 7,3 3,2 - - 41 22 76 41 WNW 999,0 10 0 0,2
13.12.2017 18:00:00 7,1 4,6 - - 48 26 81 44 W 998,2 8 0 2,2
13.12.2017 17:00:00 8,7 2,8 - - 39 21 67 36 W 998,5 14 0 0,0
13.12.2017 16:00:00 8,6 2,8 - - 34 18 57 31 W 998,9 16 0 0,4
13.12.2017 15:00:00 8,9 4,3 - - 35 19 55 30 WNW 999,2 14 0 0,0
13.12.2017 14:00:00 9,2 5,5 - - 35 19 55 30 WNW 999,1 18 0 0,4
13.12.2017 13:00:00 9,5 7,8 - - 31 17 55 30 W 999,2 14 6 1,6
13.12.2017 12:00:00 10,3 8,2 - - 35 19 54 29 W 999,8 16 0 0,0
13.12.2017 11:00:00 10,1 8,2 - - 29 16 48 26 WZW 1000,7 16 0 0,2
13.12.2017 10:00:00 9,2 8,5 - - 26 14 48 26 WZW 1001,4 8 0 0,0
13.12.2017 09:00:00 8,3 7,3 8,7 9,9 24 13 54 29 WZW 1002,5 14 0 0,2
13.12.2017 08:00:00 9,4 7,7 - - 21 11 - - WZW 1003,2 10 0 0,0
13.12.2017 07:00:00 9,1 7,8 - - 18 10 - - WZW 1004,2 8 0 0,0
13.12.2017 06:00:00 8,5 7,4 - - 28 15 46 25 W 1005,1 12 0 4,2
13.12.2017 05:00:00 8,5 7,5 - - 29 16 - - W 1005,6 3,0 0 0,4
13.12.2017 04:00:00 8,7 6,6 - - 18 10 - - WZW 1005,8 20 0 0,0
13.12.2017 03:00:00 9,5 5,6 - - 28 15 - - W 1006,3 15 0 0,0
13.12.2017 02:00:00 9,4 6,3 - - 21 11 - - W 1006,2 12 0 0,0
13.12.2017 01:00:00 9,3 4,9 - - 21 11 - - WNW 1006,6 20 0 0,0
13.12.2017 00:00:00 9,5 5,3 - - 22 12 - - NW 1006,4 14 - 0,0
12.12.2017 23:00:00 9,6 6,0 - - 21 11 - - NW 1006,1 15 0 0,0
12.12.2017 22:00:00 9,4 7,2 - - 22 12 - - NW 1005,1 10 0 0,0
12.12.2017 21:00:00 9,5 9,3 - - 24 13 - - ZW 1005,7 4,0 0 1,0
12.12.2017 20:00:00 8,9 8,6 - - 35 19 55 30 ZW 1006,3 2,5 0 0,6
12.12.2017 19:00:00 8,2 7,8 - - 35 19 50 27 ZW 1006,9 2,5 0 0,6
12.12.2017 18:00:00 7,5 7,1 - - 28 15 46 25 ZZW 1007,9 2,5 0 0,2
12.12.2017 17:00:00 8,2 4,0 - - 29 16 - - ZW 1008,2 10 0 0,0
12.12.2017 16:00:00 7,8 4,6 - - 21 11 - - ZW 1007,7 35 0 0,0
12.12.2017 15:00:00 8,2 3,5 - - 24 13 - - ZW 1009,1 20 0 0,0
12.12.2017 14:00:00 8,3 2,9 - - 16 9 - - ZW 1009,3 30 0 0,0

tt = temperatuur
td = dauwpunt
tt -20cm = temperatuur -20cm
tt -100cm = temperatuur -100cm
ff = windsnelheid
fx = windstoten
dd = windrichting
ppp = luchtdruk
vv = zicht
sd = Zonneschijnduur
rr = neerslag

Weerstations in de omgeving